Theta_e
342 342 342 341 341 339 340 341 341 341 340 340 341 343 341 340 343 343 342 344 344 344 344 343 345 345 344 343 341 338 335 336 341 343 343 343 343 344 344 345 345 344 343 343 343 342 342 342 341 342 344 344 344 344 344 344 344 344 344 344 344 344 344 343 344 343 342 341 342 343 342 342 342 341 341 340 340 341 343 344 344 343 341 339 339
343 342 341 341 340 339 341 342 342 340 338 337 339 342 341 341 343 342 342 343 343 343 342 342 345 345 343 342 340 337 335 335 340 343 343 343 343 343 344 344 344 344 344 343 343 342 341 341 341 342 344 344 343 344 344 344 344 344 344 344 344 344 344 344 343 343 343 343 343 343 343 342 342 341 340 339 339 340 343 344 344 343 341 339 339
342 343 342 341 341 340 341 341 341 340 337 335 337 340 341 341 342 341 340 342 343 343 342 343 345 344 342 342 341 339 337 337 340 343 344 344 344 344 345 345 344 344 344 344 344 343 341 340 340 341 342 343 343 344 344 344 344 344 344 344 344 343 344 344 343 343 342 342 343 343 343 342 342 342 342 341 341 341 342 343 344 343 342 341 340
341 343 342 342 342 340 339 340 339 340 337 335 337 338 340 341 341 340 340 342 343 343 342 343 344 342 342 343 341 340 338 339 341 343 344 343 344 344 345 345 345 345 344 343 343 343 342 341 340 341 342 343 343 343 344 344 344 344 344 344 344 344 343 343 343 342 342 342 342 342 342 341 341 341 342 341 340 341 342 343 343 343 343 343 342
342 341 343 342 341 340 339 338 338 338 338 337 337 339 340 340 340 340 340 342 342 342 343 344 344 343 343 343 342 341 340 341 342 343 343 343 344 343 342 342 344 346 345 343 342 343 342 342 340 341 341 342 343 343 343 343 343 344 344 344 344 343 343 342 341 341 342 343 343 343 343 340 338 338 339 339 339 339 339 340 340 340 340 340 341
343 343 344 342 341 340 338 338 337 337 339 339 339 340 341 341 341 341 340 342 342 341 344 345 345 343 343 343 343 342 342 342 342 343 343 343 342 342 341 340 341 343 347 346 344 343 342 342 340 340 340 340 342 342 343 343 344 344 344 344 343 343 343 342 341 341 342 344 345 346 344 341 337 335 335 335 335 336 335 334 334 335 334 335 336
345 346 345 343 342 340 339 339 340 340 341 340 341 341 342 342 341 342 340 341 344 344 345 346 344 343 343 344 344 343 343 342 342 343 342 342 341 341 341 340 340 339 344 347 346 344 342 341 340 340 340 340 340 341 343 343 343 343 344 344 342 341 341 341 341 342 343 345 345 345 344 341 337 334 334 334 334 333 331 330 329 329 330 332 334
346 346 345 345 343 340 339 340 341 341 341 340 341 342 343 343 342 343 343 343 345 346 345 345 344 343 344 343 344 344 343 342 342 342 341 341 341 341 340 339 341 339 340 344 345 344 343 341 340 340 340 339 339 340 341 342 341 342 342 342 341 340 340 340 340 342 342 342 342 342 342 341 339 335 333 333 333 333 332 331 330 331 332 334 338
347 345 346 347 345 341 341 342 342 342 341 341 342 343 343 344 344 344 344 344 344 345 345 345 344 343 343 343 343 343 342 342 342 341 341 341 340 340 338 337 340 339 338 341 344 344 343 341 341 341 340 340 340 340 340 340 339 338 337 336 337 337 338 338 338 340 339 337 338 340 341 343 341 335 330 331 331 334 337 339 338 337 337 338 339
346 345 348 350 346 342 343 343 343 342 343 342 343 343 344 344 344 344 343 344 343 344 345 345 345 343 342 342 343 342 342 342 341 341 341 339 339 340 338 336 339 340 336 338 344 345 343 342 341 341 341 340 339 339 338 336 333 330 328 328 328 329 332 334 337 338 336 335 334 335 337 341 340 332 329 332 332 335 339 340 340 339 340 339 339
347 346 349 350 344 342 343 344 344 343 344 344 343 342 344 344 344 345 344 344 343 343 344 344 345 344 342 343 343 342 342 341 340 340 341 339 338 339 338 336 339 340 337 336 343 345 344 343 341 340 340 339 339 338 336 331 327 325 324 324 324 325 327 332 338 337 335 336 336 335 335 338 336 329 330 334 334 334 335 336 337 339 340 341 340
346 345 346 346 343 343 344 344 345 344 344 343 343 343 343 344 344 344 345 345 344 343 344 344 345 344 343 343 343 342 341 340 339 339 339 340 340 338 337 336 338 340 337 336 342 343 342 343 341 340 340 338 338 336 335 332 328 326 325 325 325 326 326 333 339 337 335 337 339 342 342 340 332 327 329 330 331 329 330 332 334 336 337 337 336
345 345 345 346 345 345 345 345 345 344 343 343 344 344 343 343 343 343 344 344 344 344 344 344 344 344 344 342 343 341 340 340 339 338 338 340 341 338 335 336 338 340 338 339 343 342 340 341 340 340 339 339 338 336 337 335 333 330 327 326 325 326 326 332 337 335 334 334 336 341 342 339 330 326 328 328 328 328 328 329 330 331 331 331 331
345 346 348 349 346 344 346 345 345 344 343 342 343 344 344 343 343 344 344 343 343 344 344 344 344 344 344 343 342 341 341 341 340 339 338 339 340 339 337 338 340 340 339 341 343 341 340 340 340 340 339 339 338 337 337 336 335 333 330 327 325 327 331 335 337 334 332 331 333 339 339 334 328 327 328 328 328 328 329 329 330 330 329 329 329
346 347 349 349 345 344 345 344 344 344 343 341 342 343 344 344 342 343 344 343 343 344 344 344 345 344 343 342 343 342 340 340 340 339 339 339 340 340 339 340 341 340 340 342 342 341 341 340 340 340 339 339 338 337 337 337 335 334 333 329 328 329 335 340 340 337 335 334 335 340 340 331 327 328 327 328 328 330 330 329 329 328 328 327 327
346 347 348 348 346 346 344 343 343 343 342 341 341 342 343 343 342 342 344 344 344 344 344 344 345 344 343 343 343 342 340 339 340 340 340 340 340 341 340 340 341 341 342 342 341 341 342 341 340 339 338 337 337 337 337 337 335 335 334 332 332 329 333 340 341 341 338 337 337 340 343 332 326 328 326 327 328 331 330 327 328 327 326 326 326
346 346 347 347 347 348 346 344 343 343 342 341 341 342 343 343 342 343 343 344 344 344 344 344 344 343 343 343 342 341 339 339 340 340 340 340 340 340 341 341 340 341 342 341 340 341 341 339 339 338 336 335 336 338 338 337 337 336 335 333 333 330 332 339 344 345 335 332 335 338 344 334 325 327 326 327 327 329 328 325 326 325 325 325 324
345 345 347 346 346 348 346 344 343 344 343 343 343 343 344 343 343 343 343 344 343 343 344 344 343 342 342 342 342 340 339 339 340 340 341 341 339 340 341 340 340 341 342 340 339 339 338 338 337 336 336 337 338 339 339 339 338 337 337 335 333 332 333 339 346 344 333 332 337 339 340 331 325 327 326 326 326 325 324 323 324 324 324 324 325
345 346 348 346 346 347 347 345 343 344 344 344 344 343 344 344 344 343 343 343 343 343 343 343 342 341 342 341 340 340 339 339 340 340 341 340 337 339 340 340 341 341 340 338 338 338 338 338 338 337 337 339 339 340 340 339 340 339 339 338 336 338 338 343 345 343 341 338 340 341 333 325 324 324 323 323 323 322 323 324 326 328 330 330 332
345 346 346 346 346 346 347 346 344 344 344 344 344 344 345 344 344 344 344 344 343 343 343 342 342 341 341 339 339 339 339 339 340 340 338 336 336 338 339 340 341 338 336 336 337 337 338 339 339 339 339 340 340 340 340 339 340 339 339 338 340 344 344 346 345 345 344 336 337 337 324 321 323 321 322 321 322 326 330 334 336 337 338 337 337
344 344 345 345 345 344 345 345 344 344 344 344 345 344 344 344 344 344 344 344 344 343 343 341 340 340 339 338 338 339 338 340 339 337 335 334 334 335 335 337 337 335 334 335 336 338 339 339 339 339 339 340 339 338 339 339 339 339 339 339 342 346 345 347 345 344 344 338 339 331 320 323 323 323 325 326 330 334 338 340 341 341 340 339 338
345 345 345 344 344 344 344 345 345 344 344 345 345 344 344 344 344 344 343 344 344 342 342 341 340 339 337 337 339 339 339 340 338 336 336 334 333 333 332 333 334 333 333 334 337 339 339 339 339 339 339 339 339 340 340 339 338 339 340 342 345 346 344 345 344 343 343 343 339 326 322 327 327 331 332 333 337 338 340 341 342 342 340 338 337
346 345 345 345 344 343 344 345 345 344 344 345 344 344 344 345 344 344 343 343 343 342 341 340 339 337 336 338 340 340 340 340 338 337 336 334 334 333 331 331 332 332 334 336 339 339 339 338 338 338 339 340 342 344 345 343 342 343 344 345 346 345 344 344 344 345 342 339 335 327 329 332 333 336 334 336 338 338 341 340 340 339 338 336 334
346 346 346 345 343 344 344 344 345 345 346 345 344 345 345 347 346 344 344 343 342 342 341 339 338 337 338 338 338 337 336 336 336 335 335 334 332 330 331 332 332 333 335 338 338 338 338 337 338 339 340 343 345 345 346 346 347 346 347 346 346 346 345 344 344 344 340 335 334 333 334 335 336 338 336 337 337 337 338 337 337 335 335 335 334
346 346 346 345 344 344 344 344 345 345 346 346 346 346 348 349 346 344 344 342 341 341 340 339 339 338 338 338 336 336 335 334 334 335 335 335 335 336 338 337 336 336 338 341 342 340 341 341 342 343 344 345 346 346 346 347 347 346 347 346 346 346 345 344 343 343 341 337 335 336 337 338 338 338 336 335 335 335 334 334 335 334 335 335 335
345 346 346 345 344 344 344 344 345 345 346 347 347 347 349 349 345 343 343 342 341 341 340 340 339 339 338 337 337 337 337 335 334 334 334 336 340 343 344 343 341 341 343 345 345 345 346 346 346 346 346 345 345 346 346 346 347 346 346 346 346 346 345 345 344 343 342 340 338 338 337 337 336 335 334 332 333 333 333 335 335 336 336 335 336
345 347 346 345 345 345 344 345 345 345 346 346 346 348 349 349 346 343 342 342 341 342 341 340 338 339 338 339 340 341 340 339 335 334 336 340 344 346 346 346 346 346 346 347 347 347 348 348 348 347 347 346 345 345 345 345 346 345 344 346 346 345 345 346 346 345 343 340 338 337 335 334 333 332 331 331 332 333 334 335 335 336 336 336 336
346 346 346 346 346 345 345 345 346 345 345 344 345 347 347 346 345 343 342 341 342 343 341 339 338 338 337 339 343 343 342 342 339 338 340 343 345 348 349 349 348 347 348 348 348 348 348 348 348 348 348 347 346 346 346 345 346 345 344 345 345 345 346 345 346 347 345 341 337 334 332 331 330 330 330 331 332 333 334 334 335 336 336 337 337
346 346 347 348 346 345 346 345 345 345 345 345 344 345 345 344 343 342 340 340 343 342 339 339 338 337 336 339 344 344 343 343 343 343 343 344 346 349 350 349 349 349 349 348 349 349 349 349 349 349 349 348 347 346 347 345 344 344 344 345 344 344 346 346 346 346 345 343 337 331 330 330 330 331 331 332 332 333 333 335 336 337 338 338 338
347 346 347 348 346 346 347 346 345 345 345 346 345 345 344 343 342 340 338 339 341 339 340 342 341 340 337 337 342 343 345 345 345 345 345 346 348 350 350 349 349 350 350 349 349 350 350 349 350 349 350 349 347 347 347 345 344 344 344 344 343 344 345 346 346 346 346 345 341 333 330 331 331 331 331 332 333 334 335 337 338 339 340 340 341
347 347 347 347 346 348 348 346 344 345 345 346 345 344 344 343 340 338 338 338 337 339 343 344 344 342 337 336 338 342 347 347 346 348 349 349 349 350 350 350 351 350 350 350 349 350 350 350 349 349 350 350 348 347 347 345 344 343 343 344 343 344 345 345 345 345 346 346 345 340 333 330 331 331 333 335 336 337 339 340 341 342 343 343 344
347 348 347 346 347 349 348 346 343 343 344 343 342 342 341 339 338 338 337 335 337 342 344 343 343 339 336 337 338 341 347 346 345 348 350 350 350 350 350 350 350 350 350 349 348 349 351 350 348 348 350 350 347 346 346 345 344 344 343 343 343 344 344 345 344 344 345 346 347 346 339 333 331 333 335 338 339 341 342 342 343 343 345 345 345
348 348 347 347 348 348 348 346 343 341 341 340 339 339 339 338 339 339 335 335 340 344 344 342 339 336 337 339 340 342 345 346 345 347 350 351 351 351 350 348 348 347 346 345 347 350 351 351 349 349 350 348 346 346 346 344 344 344 343 343 343 344 344 344 343 344 345 345 346 347 344 339 336 336 337 339 340 342 343 343 344 344 345 345 346
348 347 348 348 349 348 347 346 342 340 340 340 338 339 340 340 341 338 336 340 344 344 343 341 339 339 340 339 341 344 344 346 346 346 350 351 351 351 350 348 344 345 345 343 348 351 350 351 351 350 348 347 346 346 345 344 343 344 343 343 343 344 344 343 343 344 344 344 345 347 346 344 344 344 342 341 341 342 342 343 343 344 344 344 345
347 347 349 348 347 348 347 346 342 339 339 339 338 338 341 343 343 340 339 344 345 343 343 343 343 345 344 341 342 345 344 345 345 346 350 351 352 352 350 345 340 345 348 344 348 352 351 351 352 350 348 347 346 346 345 345 344 343 343 343 343 344 344 342 342 343 343 343 344 346 346 347 348 347 345 345 344 342 342 342 343 343 344 344 344
347 348 348 347 347 346 346 345 342 340 338 338 337 337 342 343 343 341 341 344 346 346 345 346 347 348 348 346 344 345 345 345 344 344 349 352 352 352 348 341 339 345 347 345 348 352 351 350 350 350 350 348 346 345 345 345 344 343 343 342 342 343 344 342 342 343 342 343 344 345 346 346 346 344 344 347 346 345 343 343 344 345 346 345 345
348 348 347 347 348 344 345 347 344 341 338 338 337 336 340 340 341 343 343 346 348 347 348 349 349 349 350 349 346 345 345 345 344 343 348 352 352 353 348 341 341 344 344 347 351 352 352 351 348 348 350 350 346 344 345 344 343 343 343 340 340 342 344 342 342 343 343 344 342 341 344 345 345 344 344 346 347 346 344 343 344 345 346 346 346
348 348 347 348 348 345 347 348 345 343 338 338 338 338 338 338 343 346 344 347 349 348 349 349 349 350 351 349 346 345 345 344 344 342 346 351 351 351 347 342 341 341 344 350 351 350 351 353 351 346 345 349 348 345 345 344 343 343 343 341 340 342 345 342 340 342 343 343 341 339 343 344 345 344 340 342 344 345 346 345 345 346 346 345 346
348 348 347 348 348 347 347 344 344 344 339 337 337 338 339 339 346 346 343 347 350 349 349 350 350 350 349 347 345 347 346 343 344 342 343 349 351 348 344 343 343 341 345 352 352 349 348 350 352 347 346 348 348 347 346 345 344 343 344 343 342 343 345 344 343 344 344 343 341 342 344 342 344 344 340 342 343 343 347 345 345 347 347 345 346
348 348 346 346 346 346 345 340 342 343 338 336 338 341 343 344 348 347 345 347 349 349 350 351 350 350 350 348 346 348 345 342 343 343 343 347 349 348 344 345 345 343 345 351 352 349 346 347 347 347 350 350 348 347 345 345 345 343 345 344 344 344 345 345 345 345 344 343 340 341 344 342 343 344 343 343 341 342 346 345 346 348 347 347 346
348 347 345 345 344 344 344 339 341 341 338 337 340 345 347 347 349 347 347 349 349 349 350 350 350 350 350 347 348 348 345 344 344 343 344 345 346 346 346 346 346 344 343 346 347 346 345 347 348 348 350 350 348 347 345 345 345 344 346 345 344 344 343 344 345 344 344 343 341 341 344 344 343 344 344 343 341 343 346 346 347 347 347 348 348
348 346 346 346 345 345 345 343 342 341 341 340 341 346 348 348 349 347 347 348 348 349 349 350 351 350 345 344 349 349 345 345 343 343 344 345 346 346 346 346 345 344 343 344 344 344 343 347 350 350 350 349 347 347 346 347 347 345 346 346 345 344 342 343 344 343 343 343 343 342 342 343 344 344 344 344 344 345 346 345 346 347 347 348 349
348 347 347 347 346 347 345 344 344 342 343 341 339 345 347 347 349 348 347 347 348 350 350 350 351 351 345 343 347 345 345 347 346 346 346 345 345 346 348 348 345 344 344 344 344 344 343 346 350 349 348 350 348 347 347 347 346 346 347 347 346 344 344 344 344 344 343 343 343 342 341 341 344 343 342 343 345 346 346 345 346 346 345 347 348
347 348 349 348 346 346 343 341 343 342 343 340 338 345 346 345 347 348 347 347 348 349 349 348 348 350 349 346 344 342 347 351 350 351 351 346 343 346 348 347 345 343 343 344 345 347 347 349 351 347 347 349 349 348 348 347 347 347 348 348 346 346 346 346 345 344 343 344 343 343 342 341 344 344 341 343 346 346 346 345 347 348 346 346 347
347 347 349 349 348 346 341 339 341 341 341 339 339 344 343 342 344 344 344 344 345 346 347 347 347 347 349 349 346 341 345 350 349 350 350 345 344 346 345 346 346 344 344 347 348 349 350 352 350 348 350 350 349 350 349 349 348 346 347 349 348 348 348 346 346 345 343 344 344 344 343 342 345 345 343 345 347 347 346 345 346 349 349 346 344
348 347 348 349 349 348 343 339 340 342 342 339 339 343 343 342 343 343 344 345 346 347 347 348 348 348 350 351 348 342 342 347 348 347 347 345 344 346 345 346 347 344 344 347 348 349 351 354 350 350 354 351 347 351 350 350 350 347 348 350 349 348 349 348 349 348 345 345 345 344 345 345 345 346 346 347 347 347 348 347 346 348 350 347 344
348 347 347 348 349 350 346 341 341 342 344 341 338 342 344 344 345 346 347 348 348 349 349 349 349 350 352 352 349 344 340 346 349 345 344 345 344 345 345 345 346 346 345 345 349 352 353 354 349 347 350 347 347 352 351 350 351 350 349 349 349 349 349 349 349 349 348 349 348 346 345 346 345 346 347 347 348 349 349 349 348 349 351 349 345
348 347 347 347 349 350 347 343 342 343 344 343 339 341 344 345 345 347 349 349 348 349 349 350 351 351 352 352 352 349 341 342 347 344 343 345 344 344 344 344 345 345 344 346 351 353 353 351 346 345 345 345 349 352 351 351 351 351 351 349 350 350 349 349 349 348 348 349 348 346 345 346 346 347 347 347 348 349 349 350 349 350 353 352 349
348 348 348 347 349 349 345 342 343 343 344 344 342 342 344 344 344 347 349 349 349 350 349 350 350 350 350 349 349 351 346 341 342 342 343 344 343 344 344 343 344 345 347 352 354 351 349 347 346 348 349 349 350 350 350 353 351 352 353 352 352 350 350 350 350 350 349 349 348 346 346 347 347 348 348 348 348 349 349 350 351 352 353 354 353
349 348 348 348 349 348 344 341 342 343 343 343 343 343 343 343 343 346 349 349 350 351 350 350 349 348 349 348 345 346 349 348 346 342 341 343 343 344 345 346 347 349 348 350 351 349 349 348 348 350 349 349 349 349 352 354 352 351 352 353 352 351 351 350 350 350 349 349 349 347 346 347 347 348 350 350 349 350 350 350 351 352 353 353 354
350 349 348 348 350 349 345 340 341 341 341 341 342 343 344 344 343 344 347 349 350 350 350 349 348 347 347 350 348 346 347 350 351 347 343 345 345 344 348 351 350 348 346 346 351 353 353 354 353 350 347 347 348 348 350 352 353 352 352 353 352 350 351 349 350 351 349 349 349 347 346 348 347 348 350 351 351 351 351 351 352 353 353 354 355
Wind_Speed
12 10 10 11 11 12 11 9 9 8 8 7 8 9 9 9 11 12 11 10 10 10 10 11 11 12 13 13 12 11 11 12 12 12 13 13 13 14 14 15 16 16 16 16 16 17 17 17 18 18 18 17 18 18 18 18 17 18 17 16 16 16 16 16 16 16 16 16 16 16 16 15 15 14 14 15 15 15 15 15 14 13 12 11 11
13 11 10 10 10 11 10 9 9 9 8 7 7 8 7 8 10 11 10 10 10 9 10 11 11 13 14 13 12 11 12 12 12 13 13 13 13 14 14 15 15 15 15 15 16 17 17 18 18 18 18 18 18 18 18 18 17 18 17 16 16 16 16 16 16 16 16 16 16 16 16 15 15 15 15 15 14 14 14 14 14 13 13 13 12
14 12 10 10 9 9 9 9 9 8 9 10 9 8 7 7 9 10 9 9 9 9 10 10 10 13 14 14 13 13 13 13 13 13 13 13 13 14 14 15 15 15 15 15 15 16 16 17 17 17 18 18 18 18 18 17 17 17 17 16 16 16 16 16 16 16 16 16 16 16 16 16 15 15 15 15 14 14 13 14 13 13 13 13 12
13 11 10 10 9 8 9 10 10 8 10 12 11 9 9 8 9 10 9 9 8 9 10 10 10 13 15 14 14 14 14 14 14 13 13 13 13 13 13 15 14 13 14 15 16 16 15 16 16 17 17 18 18 18 18 18 17 17 17 16 16 16 16 16 16 16 16 15 15 16 15 15 13 13 13 13 13 12 12 13 13 12 13 12 12
12 10 9 10 10 9 9 10 10 10 10 11 11 11 12 10 10 11 11 10 8 9 10 11 11 13 15 15 15 15 14 14 14 13 12 12 12 11 12 14 12 11 12 14 16 16 15 15 16 17 17 18 18 18 18 18 17 17 16 16 16 16 16 16 16 16 15 15 15 14 14 13 11 10 10 10 10 10 11 11 11 11 11 10 10
11 10 8 10 11 11 10 9 10 9 8 9 11 11 12 12 11 11 11 11 9 9 10 11 12 13 14 14 14 15 14 14 13 12 12 12 12 12 13 13 11 11 10 11 15 15 15 15 16 16 16 17 18 18 18 18 17 17 17 16 16 16 16 16 15 15 15 15 14 12 11 11 9 8 8 8 8 8 8 9 9 9 9 9 8
12 11 9 8 10 11 11 9 8 8 7 8 9 9 10 10 10 9 10 11 10 10 11 12 13 12 13 13 13 14 14 14 13 12 12 12 13 13 14 13 11 11 9 9 12 13 15 15 16 17 16 16 17 18 18 18 17 17 16 16 16 16 16 15 15 14 13 13 11 10 10 9 8 7 8 8 8 8 8 8 8 8 8 9 8
13 12 10 8 8 8 9 9 7 7 7 7 8 8 7 7 7 7 8 10 10 9 10 12 13 13 12 13 13 13 13 13 12 12 12 12 13 13 14 13 11 11 9 8 9 12 14 15 16 17 17 17 17 17 17 17 17 16 15 15 14 14 15 14 13 12 12 11 9 10 9 9 7 7 8 8 8 9 10 10 9 9 9 8 9
13 12 11 8 8 6 6 8 7 7 7 7 8 7 6 7 7 8 8 8 8 8 9 11 12 13 12 12 13 13 12 12 12 12 12 13 13 13 13 12 10 10 10 8 8 11 13 14 16 16 16 17 17 17 17 17 16 15 14 13 12 12 13 13 13 12 11 10 9 9 9 9 7 5 6 7 8 9 10 10 8 8 8 8 8
13 12 10 9 8 7 7 8 7 7 6 6 7 7 7 7 7 8 9 8 8 7 8 10 11 12 12 12 12 12 12 11 12 13 12 12 13 13 13 12 10 9 11 10 8 10 12 14 15 15 15 16 17 17 17 16 16 15 14 13 12 12 12 12 12 11 10 10 9 8 8 9 7 5 6 8 9 10 9 9 7 7 7 7 7
12 11 10 9 9 8 8 7 7 6 6 6 7 7 7 7 7 7 8 8 8 7 7 9 11 12 13 12 12 12 12 11 12 12 12 11 12 12 13 13 10 9 10 11 9 9 10 13 15 16 15 15 17 17 17 16 16 15 14 14 14 13 12 13 12 10 11 10 10 10 9 9 7 7 8 10 10 9 9 8 7 6 6 5 5
11 11 10 10 10 9 9 8 8 7 7 7 7 7 6 6 7 7 8 8 8 8 8 8 10 12 13 13 12 12 11 12 12 12 12 11 12 12 12 13 10 9 11 11 9 8 9 12 15 17 16 15 15 16 17 15 15 14 14 14 14 14 13 13 12 10 11 10 10 10 9 8 7 7 9 9 9 8 8 7 6 5 4 3 3
11 10 10 10 9 9 9 9 8 8 7 7 7 7 6 6 7 8 8 7 8 9 9 9 10 11 12 12 12 11 11 12 12 12 12 12 11 11 11 12 11 10 12 12 10 9 10 12 15 16 16 16 15 16 16 14 14 13 13 13 13 13 13 13 12 10 11 10 10 9 8 7 6 7 8 8 8 6 6 5 4 3 2 1 1
11 9 9 9 8 8 9 9 7 7 7 6 7 6 6 7 7 8 8 8 8 9 9 10 10 11 12 12 12 12 12 12 13 12 12 12 11 11 11 12 11 11 12 12 10 9 10 12 13 15 16 16 15 15 15 14 13 13 13 12 12 12 12 12 10 9 10 10 11 9 6 7 7 7 7 6 6 5 4 4 3 2 1 1 0
9 8 8 8 7 7 7 8 7 7 7 6 7 7 7 7 7 8 9 9 9 10 10 10 11 12 12 12 13 13 12 12 12 13 13 12 12 12 13 13 12 13 13 12 11 9 10 12 13 14 15 16 15 16 15 14 13 12 12 12 11 10 11 10 8 8 9 8 9 8 5 5 6 6 5 5 5 4 3 3 3 2 1 1 0
8 7 7 7 7 6 6 7 6 7 7 6 7 7 7 7 8 9 9 10 10 10 10 11 12 12 13 13 14 13 12 12 13 13 13 13 12 12 12 13 12 12 12 11 10 10 11 12 12 13 14 15 15 16 15 14 13 12 12 12 11 9 10 9 8 7 6 6 6 7 5 3 5 5 4 4 4 4 3 3 2 1 2 1 1
7 7 7 6 6 6 6 7 6 7 7 7 8 8 8 9 9 10 10 10 10 11 11 11 12 13 13 13 14 14 13 13 14 13 12 13 13 12 12 12 13 12 11 11 11 11 12 12 13 14 14 14 15 16 15 14 13 13 12 11 11 10 8 8 8 5 5 6 6 7 5 2 4 4 3 4 4 4 4 3 2 2 2 1 1
7 7 7 6 6 6 7 7 7 7 7 8 8 9 9 10 10 10 10 10 11 11 12 12 13 14 14 14 14 14 14 14 14 12 12 12 11 11 12 12 13 12 11 11 11 12 12 12 14 14 14 14 15 15 14 14 14 13 13 12 12 10 9 10 7 4 5 7 6 6 4 2 3 4 4 4 5 5 4 4 3 3 4 3 4
6 7 6 7 6 6 7 7 6 7 8 8 9 9 10 10 10 11 11 11 12 12 12 12 13 15 15 14 14 15 15 14 13 12 12 11 9 9 10 11 11 11 11 11 12 12 12 12 14 13 13 14 14 14 13 14 13 12 12 10 11 11 11 10 5 4 5 5 6 4 3 3 4 5 5 5 5 6 6 6 6 6 6 6 5
6 6 6 7 6 6 7 6 5 6 8 9 9 9 10 11 10 11 12 12 13 13 13 14 14 15 15 15 14 15 15 14 13 12 12 11 10 9 9 10 11 11 11 12 12 12 12 13 13 13 13 13 13 13 12 13 12 11 10 8 11 12 9 7 4 4 4 4 6 4 3 5 5 6 6 6 7 8 8 8 7 7 6 6 5
6 6 6 7 6 6 7 6 6 7 9 11 10 11 11 11 11 13 13 13 13 13 14 15 16 16 16 15 15 15 14 14 14 12 11 11 12 11 11 11 11 11 12 12 12 12 13 13 13 13 12 12 12 12 12 11 11 10 8 9 13 11 6 5 4 4 4 4 5 3 4 6 6 8 8 8 9 9 8 7 6 6 6 5 5
7 7 7 6 6 6 7 7 7 9 11 11 11 12 12 12 12 14 14 14 14 14 15 16 17 16 16 16 15 14 14 14 14 13 12 12 13 13 13 12 12 12 12 12 13 13 13 14 13 13 12 11 11 10 9 9 10 10 10 12 12 7 5 6 5 5 5 4 3 4 6 7 7 8 8 9 9 9 9 8 7 8 8 7 6
7 7 7 6 6 7 7 8 9 11 12 12 13 13 13 13 13 15 15 15 16 16 16 17 18 17 16 14 13 13 14 13 14 14 13 13 13 14 14 13 13 13 13 13 13 13 13 13 12 11 11 10 9 7 5 5 6 9 11 10 8 6 6 6 5 5 4 4 5 5 7 7 8 8 8 9 10 11 11 10 9 8 8 8 7
7 7 7 7 7 8 8 10 10 11 12 13 13 14 14 13 13 15 16 16 16 17 18 18 18 16 15 14 13 14 14 14 14 15 14 13 13 14 13 13 13 13 13 14 13 13 13 12 11 10 9 7 6 4 3 3 4 6 7 6 5 6 6 6 5 5 4 6 6 7 8 8 9 9 9 11 12 12 11 11 10 9 9 9 9
8 7 7 8 9 9 9 11 12 13 13 13 14 15 14 12 15 17 16 16 17 17 18 18 17 16 15 14 14 14 14 14 14 14 14 14 13 13 12 12 12 12 13 13 11 11 10 9 8 8 6 5 4 3 4 4 5 5 6 5 6 7 6 6 6 6 6 7 8 8 10 10 11 11 11 13 13 12 12 11 11 11 11 10 10
8 7 8 9 10 9 10 11 13 14 14 14 14 15 14 13 16 18 17 18 18 18 18 17 16 15 15 15 14 14 13 13 14 14 14 14 12 12 11 11 11 10 12 10 9 10 8 6 6 6 5 4 4 5 5 5 6 6 6 7 7 7 7 6 6 8 8 8 9 10 10 11 11 11 12 13 13 12 12 12 11 11 11 10 10
8 8 8 10 11 10 11 12 13 15 15 15 16 15 14 14 15 17 17 17 18 18 18 17 16 16 16 15 13 12 12 12 13 14 13 12 11 10 9 9 9 9 10 9 9 8 7 6 6 6 6 6 5 6 7 7 7 7 7 8 7 7 7 7 8 9 9 10 10 10 11 11 11 12 13 14 13 13 12 11 11 10 10 10 10
9 9 9 11 11 11 12 13 14 15 16 16 17 16 15 15 15 16 17 17 16 16 16 16 16 16 16 15 13 11 11 11 11 11 11 10 9 9 7 8 8 8 9 8 8 7 7 7 7 7 6 7 6 7 7 7 8 8 8 8 8 8 9 8 9 9 9 9 10 10 11 11 12 13 14 14 13 13 11 10 10 10 10 10 10
9 10 10 11 12 12 13 13 14 15 15 16 16 16 16 16 16 17 18 17 15 15 16 16 16 15 15 16 14 11 11 10 9 9 9 8 8 7 6 7 7 7 8 7 7 7 7 7 7 7 7 7 7 7 7 7 8 8 8 9 9 9 10 9 10 10 9 9 11 11 12 12 13 14 14 14 13 12 11 9 9 9 10 10 10
10 10 11 11 12 13 13 13 14 14 15 15 15 16 16 16 17 18 18 17 16 17 16 15 14 14 14 15 14 12 10 9 9 8 8 7 6 6 6 6 7 7 7 6 6 6 6 6 6 6 6 7 7 7 8 7 8 8 9 9 9 9 9 9 10 9 9 9 10 12 13 14 14 15 14 13 12 11 10 9 9 10 10 10 10
10 11 11 11 12 12 13 13 14 14 15 14 15 16 16 16 17 17 17 17 17 17 15 14 13 13 14 14 14 14 10 7 9 8 6 6 5 5 6 6 6 6 7 6 5 6 6 7 7 7 7 7 7 7 8 8 8 9 9 9 9 8 8 9 8 8 8 8 9 10 12 14 14 14 14 13 12 11 10 9 10 10 10 9 9
10 11 12 12 13 13 13 13 14 15 15 15 16 16 16 17 17 17 17 18 18 16 14 14 14 15 15 13 13 13 10 9 9 8 6 5 5 5 5 6 6 6 6 6 6 7 7 7 8 8 8 8 7 8 8 8 8 8 8 9 9 8 8 8 8 8 7 7 7 8 10 13 14 13 12 11 10 9 9 8 8 9 9 8 8
10 12 13 14 13 14 14 14 15 15 15 16 17 17 17 17 17 16 17 17 16 14 13 14 16 15 14 13 12 11 11 10 8 8 6 4 5 5 5 6 6 6 6 6 7 7 7 7 7 7 7 7 7 7 7 8 8 8 8 8 8 7 7 7 7 7 6 5 5 6 7 10 11 10 9 8 8 7 7 7 7 7 7 7 7
11 12 13 14 14 14 14 14 15 16 16 16 17 17 16 16 16 16 17 16 14 13 13 14 15 13 12 12 11 10 10 9 7 8 6 4 4 5 5 6 7 7 5 6 7 6 7 7 7 7 7 7 7 7 7 7 7 7 6 6 6 6 6 6 6 6 5 4 4 4 5 6 6 6 6 7 7 6 6 6 6 6 6 6 6
11 12 14 15 15 15 15 15 16 17 16 16 17 17 16 15 15 15 16 15 13 13 12 12 12 10 9 9 10 10 9 8 7 7 5 4 4 4 5 7 9 7 5 6 7 6 7 7 7 6 6 7 7 7 7 7 7 6 6 6 6 5 5 6 5 4 4 4 3 4 4 4 4 3 5 5 6 6 6 6 6 7 7 6 6
11 13 14 15 14 15 16 16 16 17 17 16 17 17 16 15 15 15 16 15 12 12 11 10 10 9 8 7 9 9 8 7 6 6 5 4 4 4 4 7 8 6 5 6 6 6 7 6 7 7 6 6 6 6 6 7 6 6 7 6 5 5 5 5 4 4 4 4 3 3 4 3 3 4 6 5 4 6 7 7 7 7 8 8 8
12 13 15 15 15 16 16 15 16 17 17 17 17 17 16 16 15 14 14 13 10 10 10 9 9 8 8 7 8 8 7 6 6 7 6 4 4 4 4 7 7 6 5 5 5 5 6 6 7 8 7 5 5 6 5 5 6 6 7 6 5 5 4 5 4 4 4 4 3 3 3 2 4 6 6 5 4 4 6 6 6 6 7 7 8
12 13 14 15 15 15 15 15 15 16 17 17 17 16 16 16 14 12 13 12 9 9 9 9 8 8 8 7 8 7 6 6 5 6 7 5 4 4 5 6 6 6 6 5 4 5 6 6 6 7 7 5 4 5 5 5 5 5 7 6 5 4 4 5 4 3 3 3 3 2 1 2 3 4 4 4 3 4 4 4 4 3 5 6 7
12 13 15 15 15 15 16 17 17 16 17 18 17 17 16 15 13 11 13 11 9 8 8 8 8 8 8 7 8 7 5 6 6 6 7 6 4 4 6 6 6 7 6 5 4 4 6 7 6 6 7 6 5 4 4 4 3 4 5 6 5 3 3 4 3 2 2 2 3 1 1 2 2 2 4 4 3 4 4 4 5 5 6 7 7
13 14 15 16 17 17 17 18 18 17 18 18 17 16 14 13 12 11 11 10 9 8 8 8 8 8 7 7 7 7 6 7 6 6 6 6 5 5 6 7 6 6 6 4 3 3 5 7 6 6 6 5 4 4 3 3 3 3 3 4 4 3 2 2 2 2 2 2 2 1 1 1 1 2 3 3 3 4 4 5 5 5 6 7 7
14 15 16 16 17 17 17 19 18 18 19 18 17 15 13 12 12 11 10 9 9 8 8 8 7 8 9 8 7 6 6 7 7 6 6 6 6 6 6 6 5 6 6 4 3 2 4 5 6 6 5 5 4 4 4 3 3 3 3 3 3 3 2 1 1 1 1 1 1 1 1 2 2 2 2 3 4 4 5 5 5 6 6 7 8
15 16 16 16 17 16 17 18 18 18 18 18 17 14 13 12 11 10 9 9 8 8 7 7 7 7 9 9 7 6 7 7 7 7 6 5 5 5 5 5 5 6 5 4 2 1 2 5 6 5 4 4 5 4 5 4 3 3 2 2 2 3 2 1 1 1 1 1 0 0 1 3 3 3 5 5 5 5 6 6 6 7 7 7 8
16 16 16 16 17 17 17 18 17 18 18 18 18 15 13 12 11 9 8 7 7 7 7 8 7 6 7 8 7 7 7 6 6 6 5 5 5 5 4 4 4 5 4 3 2 1 1 3 4 4 3 4 4 4 5 4 4 3 2 2 1 2 2 0 1 1 1 1 2 1 1 3 3 4 5 6 6 6 7 7 7 8 9 9 9
17 17 16 17 17 18 19 19 18 18 18 18 18 15 14 14 12 11 10 9 8 8 9 9 8 7 6 6 6 7 7 5 4 4 3 4 5 4 4 4 3 4 4 3 2 1 1 2 2 3 4 3 3 4 4 5 5 3 2 2 1 1 1 1 1 1 2 2 2 1 1 3 4 4 5 7 7 7 7 7 8 9 10 11 10
17 18 18 17 17 18 20 19 18 18 17 18 17 15 14 14 12 11 11 11 9 9 8 8 8 7 6 5 5 6 6 5 5 5 4 4 4 4 4 4 3 3 3 2 2 1 1 1 2 2 4 4 3 4 3 4 4 4 4 3 2 2 3 4 2 1 3 3 2 2 3 4 5 4 6 7 7 7 6 6 8 8 10 12 11
18 18 18 17 17 17 19 19 18 18 17 17 17 15 14 14 12 11 10 10 9 8 8 8 7 6 6 5 5 5 6 5 4 4 4 3 3 3 3 4 3 3 3 3 2 1 1 1 1 2 3 3 3 4 3 3 4 4 4 3 2 2 4 5 4 2 3 4 4 5 3 4 6 5 5 6 6 6 6 7 9 7 10 14 13
18 18 18 18 17 17 19 19 18 18 17 17 17 15 14 14 13 11 9 9 8 8 8 8 7 6 6 5 4 4 5 6 5 5 4 4 4 3 3 3 3 2 3 3 3 1 0 1 2 1 2 3 3 4 4 3 4 3 3 2 2 3 3 3 5 5 4 4 5 6 5 5 7 6 5 7 7 7 7 8 9 6 10 15 14
17 18 18 18 18 18 19 19 18 18 17 17 17 16 14 13 13 12 10 9 8 7 8 7 6 6 6 5 4 4 5 6 6 5 5 4 4 3 3 3 3 2 2 2 1 1 1 1 2 2 3 4 3 3 3 3 3 3 2 3 2 3 3 3 4 5 5 6 6 6 7 7 7 6 6 8 8 7 7 7 7 6 7 11 12
17 18 18 18 18 19 19 19 18 17 17 17 16 16 15 13 14 13 10 9 8 6 6 6 6 6 5 5 5 4 4 5 6 6 5 5 4 3 3 3 2 1 1 1 1 2 2 2 2 2 2 3 3 3 3 3 3 3 3 3 3 4 4 4 4 4 5 5 6 8 8 7 7 6 6 7 8 7 7 7 7 6 6 8 9
17 18 18 17 18 18 18 19 18 17 17 17 17 16 15 14 14 13 11 10 8 7 7 6 6 6 5 5 5 5 4 4 4 5 5 5 4 4 3 2 2 2 2 3 2 2 2 2 2 2 3 3 4 3 3 3 3 4 3 3 4 4 4 5 5 5 5 6 7 9 9 7 8 7 6 7 7 7 7 6 6 6 6 8 8
16 17 18 18 18 18 18 18 18 17 17 17 16 16 16 15 14 14 12 10 8 8 7 7 6 5 5 5 5 5 5 5 4 5 5 4 4 4 3 3 3 3 3 2 2 1 1 2 3 4 4 4 5 4 4 4 5 5 4 4 5 5 5 5 5 5 6 7 7 9 9 8 9 8 6 7 7 6 6 6 5 6 7 7 7
Wind_Direction
152 148 145 137 133 137 138 138 134 136 133 133 129 120 118 117 119 121 122 119 119 124 124 121 126 122 112 109 109 113 118 121 122 118 115 114 111 111 113 111 109 108 109 110 109 109 107 105 106 106 104 103 102 102 102 102 103 104 105 105 105 104 105 104 101 100 100 99 98 96 95 94 94 94 95 94 96 99 100 101 102 103 107 111 108
153 152 151 138 134 136 134 138 138 138 139 148 141 126 127 125 126 123 120 121 125 133 125 122 127 118 108 106 107 112 116 121 124 120 116 113 110 112 115 113 111 109 108 108 108 107 106 106 107 107 106 105 103 102 102 102 101 102 104 105 105 103 104 104 102 100 99 98 96 95 93 93 92 92 92 94 97 98 98 97 99 104 109 110 110
153 150 150 137 130 134 134 140 137 134 144 161 156 135 137 136 134 131 128 127 130 133 120 119 124 115 109 109 109 111 116 122 124 121 117 114 114 116 118 116 113 112 111 110 108 106 106 107 106 106 105 104 103 103 103 102 100 101 104 105 105 104 104 105 103 102 101 98 96 94 93 91 90 91 91 93 96 98 100 101 103 104 104 105 106
154 151 148 137 133 143 144 144 138 138 144 156 158 147 149 150 142 138 137 135 135 130 119 122 123 114 112 112 110 114 118 122 124 123 120 116 117 120 118 112 108 110 113 113 109 106 105 106 106 105 103 102 101 103 103 102 101 101 103 104 104 105 105 104 104 104 100 97 95 93 90 87 86 89 91 93 96 99 100 101 102 101 100 101 103
154 155 151 143 141 149 148 143 142 145 147 146 150 155 156 151 145 145 144 145 144 129 124 127 122 116 116 117 116 118 119 123 124 122 119 112 114 120 114 106 101 98 104 111 110 108 107 106 107 106 106 103 101 102 102 101 101 101 101 102 103 104 104 104 103 100 96 95 90 86 85 82 80 82 88 92 97 101 102 102 102 102 102 101 103
151 151 150 148 142 146 147 140 140 147 152 142 143 156 157 153 155 151 145 148 147 133 132 128 121 119 119 121 122 122 122 123 123 119 116 114 118 119 111 105 102 97 96 104 107 109 108 106 105 105 105 104 103 102 101 101 100 100 101 100 101 101 101 102 100 97 93 88 83 82 81 76 73 74 84 90 97 102 104 104 102 102 101 101 100
148 144 145 146 141 148 146 135 136 145 150 140 141 153 155 153 154 148 144 144 143 142 141 130 122 119 120 123 123 122 122 122 120 118 117 116 115 111 107 103 102 102 95 88 98 104 104 104 104 102 101 101 103 102 100 99 98 97 97 97 98 98 100 101 99 97 92 84 81 83 80 74 69 68 78 85 90 91 92 92 94 97 98 98 95
142 143 142 141 146 152 142 134 134 139 142 136 139 148 145 143 144 143 144 141 142 147 141 129 122 120 121 123 121 121 121 120 119 117 116 112 107 106 105 104 104 103 93 77 87 97 97 100 98 98 100 101 101 99 99 98 96 94 93 93 94 96 98 99 97 92 87 85 85 85 85 82 73 66 75 82 89 91 88 85 84 92 97 97 94
140 141 139 139 152 155 140 139 135 137 140 131 135 142 141 148 155 146 143 147 147 142 132 125 124 123 122 122 119 120 121 119 118 116 115 110 107 105 104 106 107 103 99 87 82 95 99 97 95 96 101 101 100 98 96 94 93 92 92 93 94 96 95 97 94 88 86 88 89 92 93 87 76 67 77 85 92 98 95 90 86 89 95 95 95
140 139 137 140 153 157 148 141 136 139 136 128 137 151 156 161 160 143 145 155 150 141 131 126 128 125 121 119 118 119 119 118 115 115 117 113 110 108 108 109 109 109 110 106 94 95 101 100 98 99 101 102 102 100 96 91 90 89 90 92 93 95 98 98 90 89 94 93 93 96 95 90 85 81 90 93 94 97 96 98 100 97 96 93 97
140 139 143 149 154 158 154 143 142 146 138 142 153 162 163 158 151 140 143 148 142 139 133 128 128 124 121 122 122 121 120 121 118 115 115 114 113 112 112 112 115 117 110 110 103 93 97 100 101 103 104 104 104 101 96 91 89 89 89 89 90 92 98 99 90 94 102 100 100 97 93 92 93 91 93 95 92 93 95 100 104 103 100 100 104
140 147 155 157 159 159 153 145 149 150 149 159 160 162 162 154 151 145 140 139 138 137 136 134 127 123 125 127 126 123 122 122 121 118 114 113 114 114 114 111 116 118 114 118 107 93 95 96 102 106 106 103 100 98 94 91 90 90 89 89 89 90 95 98 93 99 101 101 104 98 94 91 91 92 90 90 90 91 97 104 108 109 108 112 115
144 155 158 153 159 154 143 139 143 144 148 158 156 161 161 155 156 146 139 140 139 137 141 138 129 126 125 126 125 123 123 120 118 118 115 113 114 117 116 113 116 119 120 121 108 99 97 95 100 103 103 101 97 96 95 93 91 91 90 89 89 91 91 90 93 101 102 106 104 97 99 99 91 87 84 86 90 91 99 105 108 106 99 97 103
148 155 148 148 155 148 139 133 135 137 140 149 150 156 154 155 154 143 139 142 142 140 142 137 133 129 122 122 121 118 118 115 114 114 114 116 118 121 120 118 122 122 122 120 110 105 102 99 99 99 99 100 100 97 95 92 91 90 88 87 89 94 89 80 84 95 100 107 102 93 95 102 93 86 88 92 98 99 100 103 101 99 96 98 85
152 150 140 143 148 143 135 129 132 132 134 143 146 150 148 148 146 142 138 138 141 141 141 137 134 129 123 121 118 113 111 110 111 112 112 117 122 125 124 125 125 122 125 124 118 113 108 102 97 97 99 102 102 96 92 91 90 88 86 85 84 90 94 86 82 88 88 93 98 96 89 98 100 94 100 105 109 107 99 98 92 91 97 92 60
151 144 135 139 140 133 123 121 128 127 128 136 143 147 144 140 140 140 137 135 137 139 140 135 132 127 122 119 114 110 107 109 109 110 112 115 118 123 126 128 125 122 128 129 123 118 110 104 102 104 104 105 102 94 92 91 89 87 83 80 78 81 94 92 79 78 86 91 98 99 86 100 114 108 112 114 109 99 80 76 68 74 79 63 54
149 141 133 136 132 124 119 121 126 123 124 131 141 143 138 136 137 135 132 132 133 135 135 133 129 124 121 117 113 109 109 109 106 108 112 113 115 120 126 127 124 127 133 128 121 116 108 107 111 112 108 103 96 91 91 89 86 84 80 75 72 72 84 91 77 70 103 108 97 95 97 122 120 115 113 106 94 84 72 72 76 91 80 66 59
147 138 133 133 130 123 118 119 122 122 122 128 134 135 134 131 130 128 126 128 128 130 131 130 127 122 121 116 113 111 108 105 105 108 109 110 114 121 129 128 126 131 132 124 117 111 105 108 113 112 107 99 93 91 88 86 81 78 76 72 73 72 73 78 76 72 91 96 87 93 123 155 115 111 106 98 89 85 83 89 92 85 73 64 56
143 133 130 129 129 119 109 107 113 121 124 125 125 128 131 126 125 124 125 128 127 129 128 127 125 122 121 117 114 109 104 103 105 105 104 107 114 122 131 129 127 129 129 123 116 109 104 107 110 110 104 97 92 87 82 78 74 72 69 70 78 72 64 63 63 73 74 85 95 102 137 130 110 107 101 99 102 101 95 89 82 73 66 61 54
140 133 129 122 121 113 109 108 113 121 127 125 120 123 126 124 125 124 124 125 126 128 127 126 124 121 120 117 113 107 103 103 101 97 99 112 122 129 138 135 131 130 127 121 114 111 109 107 108 108 103 95 88 81 76 73 69 68 68 73 73 62 54 55 56 74 77 91 100 109 123 112 108 103 101 106 109 104 94 82 73 65 60 57 52
139 134 123 118 117 112 113 116 119 119 124 124 121 122 123 124 126 124 124 123 124 125 125 125 123 120 118 114 109 106 104 103 99 95 97 111 122 128 135 135 133 129 122 116 113 113 113 112 111 108 101 96 93 84 75 71 70 67 68 70 64 54 47 58 66 80 83 80 88 110 113 108 105 101 103 108 105 98 89 78 65 55 49 48 45
142 137 125 119 118 119 123 121 120 116 119 123 123 123 122 123 123 121 123 122 121 122 123 123 122 120 115 110 108 107 105 104 102 101 101 107 114 118 123 126 128 124 118 116 115 115 114 114 111 106 103 99 94 84 68 63 64 59 58 59 56 48 49 64 77 83 84 86 94 113 106 103 102 101 105 105 100 92 85 75 65 56 47 42 41
142 135 128 123 121 126 128 122 119 115 117 121 120 121 121 121 120 119 120 120 120 121 123 122 121 119 114 110 110 110 109 108 109 109 108 109 112 115 116 120 121 118 116 114 111 111 113 112 110 108 105 93 81 74 66 54 43 40 46 50 49 48 51 64 79 79 89 103 100 101 98 97 98 101 102 99 93 85 78 71 65 60 54 49 45
139 133 129 125 124 127 127 123 120 115 116 116 116 119 119 118 117 115 116 117 118 121 123 122 120 118 115 113 112 111 111 112 112 113 115 113 112 112 113 114 113 114 115 111 109 110 111 111 106 103 95 81 75 74 74 66 45 41 48 52 54 58 57 65 82 85 91 99 99 97 94 94 96 94 92 90 84 79 74 70 66 62 60 56 50
140 137 131 126 128 129 128 126 121 118 117 115 116 118 116 117 118 116 116 117 118 121 122 121 120 118 116 114 113 113 114 118 120 121 123 120 114 110 110 109 110 115 112 106 108 109 106 102 92 89 87 81 83 83 77 72 68 65 67 69 65 66 69 68 81 90 88 91 94 93 93 93 92 89 87 85 80 77 75 72 68 65 62 58 55
142 137 133 130 130 130 129 126 121 119 119 119 120 117 115 119 119 119 122 122 123 124 124 124 123 121 119 117 117 118 120 126 127 127 125 121 113 107 106 106 107 109 105 102 106 104 99 96 88 86 92 89 82 80 82 82 81 75 71 73 71 71 75 74 78 87 90 91 89 90 92 91 91 90 88 84 82 80 77 74 71 68 66 62 60
144 140 137 134 132 131 129 125 123 122 122 123 122 119 120 122 121 121 122 123 126 127 127 127 127 126 125 122 120 121 125 129 129 127 122 117 111 105 102 101 102 102 101 102 100 96 95 93 88 85 85 88 84 79 80 81 83 83 76 73 75 77 80 82 83 84 86 88 88 90 91 91 93 91 88 85 83 81 78 76 74 72 70 67 64
147 142 137 136 134 132 130 127 126 126 125 124 123 123 124 125 124 121 123 124 124 126 128 128 129 129 131 127 124 127 129 127 126 123 118 114 110 103 98 97 100 101 99 100 96 91 90 85 82 80 79 85 87 86 87 83 82 85 82 76 79 84 84 84 85 85 85 86 86 89 92 93 92 89 86 85 82 80 78 77 76 75 73 69 65
146 143 140 138 137 133 130 130 129 128 127 126 125 125 126 127 126 126 128 127 126 130 129 129 131 133 136 130 125 129 128 126 125 122 117 113 108 98 96 100 100 99 97 97 93 87 85 80 77 78 78 81 86 89 89 85 85 86 84 83 84 83 84 84 84 86 88 87 85 88 93 92 90 88 85 83 81 80 79 78 77 76 73 69 64
147 146 145 141 139 136 132 133 134 132 130 129 129 129 129 129 129 131 131 130 132 132 128 128 130 133 139 134 131 130 122 126 126 117 113 106 99 95 96 100 98 97 97 94 87 81 79 75 73 75 75 80 87 89 87 88 89 85 83 87 88 85 86 85 84 85 84 85 84 84 89 90 88 86 84 82 81 81 79 78 76 74 71 66 60
150 148 148 144 141 137 135 138 137 136 134 133 133 133 132 132 133 134 132 133 134 130 128 130 130 136 140 134 135 130 117 126 124 110 105 100 95 97 101 103 102 100 95 88 81 76 74 71 73 79 81 82 87 89 89 89 88 86 85 86 87 88 87 85 85 86 84 85 86 83 84 88 88 88 88 86 85 84 81 77 73 70 66 63 58
151 152 151 145 142 140 140 141 140 139 136 135 136 135 134 134 134 133 134 135 133 128 131 133 135 141 139 135 135 129 123 128 126 115 103 98 99 100 108 113 109 104 97 91 83 77 70 66 75 81 83 85 87 90 90 90 89 88 87 86 87 88 87 89 90 89 86 80 81 83 83 87 91 93 93 89 86 82 79 74 68 63 60 57 55
153 156 151 146 144 144 143 141 144 141 136 136 136 134 134 134 132 133 136 134 130 128 132 136 139 140 137 135 131 127 126 123 124 120 103 95 103 106 116 123 122 113 105 96 82 73 66 62 70 75 78 86 90 89 88 89 88 87 87 87 89 89 89 91 89 88 87 79 80 87 85 87 91 91 90 85 78 72 69 67 64 58 54 50 48
156 155 150 149 148 147 145 143 146 142 140 140 137 135 135 134 133 137 136 130 129 129 133 137 137 137 137 135 130 128 128 123 128 124 108 102 103 106 115 130 136 119 100 94 79 63 61 58 63 74 80 87 91 87 86 87 85 84 87 87 89 92 92 91 90 88 90 90 85 85 88 86 82 79 76 69 62 64 64 61 63 60 54 48 43
156 154 153 154 152 150 147 147 150 146 146 144 139 139 136 134 136 139 137 130 130 129 132 135 134 136 136 137 133 131 132 129 135 130 114 108 106 108 118 141 145 122 93 93 81 58 53 54 60 71 80 89 91 86 84 82 80 83 85 85 88 91 91 91 91 89 90 90 81 76 80 81 74 76 78 63 48 57 63 66 73 73 68 59 49
157 157 157 154 154 154 148 149 151 148 150 147 144 143 139 141 141 142 140 133 132 132 133 135 134 135 133 140 138 134 138 136 141 138 118 104 109 105 122 151 149 127 111 95 75 56 49 57 66 68 76 89 93 88 86 82 82 85 86 89 94 89 90 94 89 88 88 82 78 63 52 60 68 69 73 66 41 44 55 69 79 76 68 61 53
161 162 160 155 156 156 147 150 154 151 153 152 149 147 145 146 142 142 141 134 134 136 135 135 137 137 137 147 142 136 143 139 142 141 124 111 116 107 128 155 151 141 125 91 67 56 47 52 64 66 71 74 81 87 86 85 86 88 89 95 97 89 89 85 74 74 80 72 68 56 40 40 48 48 45 39 26 21 40 61 75 74 60 48 42
163 163 163 157 159 157 151 157 158 155 157 155 153 151 150 148 142 146 147 137 138 139 138 139 140 140 144 151 142 135 142 140 142 141 133 125 122 125 141 150 152 153 128 85 66 63 52 46 47 60 71 66 65 76 76 75 80 88 94 101 97 90 92 85 73 65 70 77 78 77 62 27 41 45 26 22 12 354 12 27 23 38 35 23 19
165 167 167 162 161 161 160 162 160 159 161 159 158 154 153 151 146 152 152 144 144 144 143 143 144 145 149 148 134 130 140 138 135 138 137 128 125 138 145 145 151 156 132 86 64 64 62 54 44 50 62 60 59 63 63 64 64 75 90 105 107 102 93 87 88 73 59 77 75 60 50 32 33 34 22 26 10 338 342 354 339 336 347 350 358
168 173 172 167 166 167 165 162 160 162 164 163 162 158 156 155 152 157 156 152 150 149 147 145 145 145 150 148 133 132 140 135 133 136 137 136 140 144 146 144 144 154 144 106 83 69 62 60 58 56 49 45 57 59 49 48 62 77 88 109 118 116 94 75 76 71 61 78 55 351 12 32 9 22 23 16 4 333 312 331 330 319 325 327 341
172 177 175 172 171 170 168 165 163 165 166 167 165 162 163 161 160 161 159 158 157 154 152 147 145 149 155 151 135 135 139 134 134 133 132 138 144 142 144 144 143 158 160 142 126 94 63 54 50 50 44 41 53 57 54 57 73 88 97 117 124 122 102 57 52 69 49 83 91 351 355 331 335 13 2 330 341 326 302 313 322 319 319 318 329
176 176 174 175 174 173 173 170 170 169 168 171 169 166 169 166 163 163 162 164 160 155 156 154 151 158 161 151 142 148 146 138 136 134 133 135 140 142 138 140 149 158 161 156 149 116 71 54 38 31 32 42 56 58 54 55 62 73 89 114 127 136 126 356 1 41 357 12 81 221 326 328 333 350 347 326 318 318 313 314 317 318 317 316 321
178 176 175 178 175 175 179 177 176 174 171 174 172 169 171 167 165 165 161 162 161 158 164 166 157 159 165 154 151 156 147 138 137 131 130 138 143 141 130 136 155 158 166 175 171 195 58 53 38 30 28 36 60 60 43 32 41 62 81 80 83 141 142 335 335 1 342 339 325 278 302 332 329 326 329 321 317 324 326 323 319 317 318 321 323
180 179 177 179 178 180 184 181 180 179 176 176 173 172 173 170 170 171 166 165 171 170 171 174 168 165 170 164 162 161 150 151 156 140 141 154 148 144 144 149 159 161 171 184 172 170 43 31 18 37 39 26 42 51 39 26 29 35 33 27 18 108 85 6 335 338 323 323 328 329 334 322 316 317 314 311 316 325 331 331 325 324 324 324 327
183 183 181 180 181 184 187 184 183 182 182 180 175 174 176 173 174 177 173 171 173 173 171 175 174 167 166 171 174 170 162 167 171 158 160 165 154 157 159 153 161 169 165 168 165 164 79 10 340 29 32 12 15 20 25 29 24 26 28 16 0 20 8 347 342 312 299 307 316 310 316 311 307 317 313 307 312 323 331 326 324 323 314 317 326
185 186 184 183 182 185 189 188 186 185 187 187 181 177 177 178 182 181 177 176 172 174 173 173 175 166 162 172 177 176 173 174 181 177 174 177 172 175 172 165 175 175 168 170 158 142 74 355 315 20 19 0 7 1 4 27 20 18 29 30 16 357 346 336 336 335 300 302 308 301 300 310 311 310 306 312 316 321 323 317 327 324 301 313 324
186 186 186 187 184 185 191 192 192 190 192 193 189 184 183 184 187 184 183 183 178 179 177 169 170 166 163 168 169 182 182 174 190 202 192 194 194 195 191 182 180 176 178 169 141 116 108 264 284 313 325 331 11 3 346 6 12 14 22 19 4 335 331 331 333 337 320 309 315 307 304 312 315 311 310 321 320 319 321 319 331 325 304 316 324
186 185 186 189 188 189 194 197 198 196 197 199 196 191 189 190 190 188 188 188 185 185 178 170 171 171 169 168 163 187 196 182 192 207 204 207 206 202 204 191 186 192 181 155 135 171 213 247 276 296 307 321 355 351 333 348 353 359 2 344 337 322 317 314 319 324 316 319 325 309 303 309 312 310 313 321 321 322 324 321 326 323 314 322 324
186 186 186 188 190 193 197 199 201 200 200 201 199 195 194 194 193 192 194 191 188 189 185 184 188 182 181 187 181 186 203 198 197 202 203 210 213 205 209 202 201 209 174 170 224 232 245 257 269 301 314 310 308 306 321 339 333 339 342 329 325 318 306 300 299 307 312 318 315 303 304 313 312 312 316 322 324 325 324 322 325 325 324 324 323
186 187 186 186 190 195 200 201 200 200 202 201 200 199 198 197 195 195 198 196 193 197 200 201 199 194 193 204 207 198 200 206 211 213 207 207 216 209 212 217 214 226 216 214 236 265 296 305 291 276 274 278 286 294 306 312 306 309 314 310 312 310 304 303 298 303 312 309 304 304 310 316 316 316 317 321 324 321 322 324 323 323 325 327 328
185 186 186 186 188 194 201 202 200 200 202 202 202 202 202 202 200 199 200 201 204 208 210 211 207 205 205 211 223 217 208 203 210 224 219 212 221 215 210 226 228 231 237 236 243 272 303 308 286 276 281 285 286 290 295 300 297 297 300 292 294 296 296 302 301 306 313 309 310 310 310 315 316 312 313 322 323 317 321 325 324 328 333 336 333